Regional Weather Roundup
Issued by NWS

Home | Current Version | Previous Version | Text Only | Print | Product List | Glossary On
Versions: 1 2 3 4 5 6 7 8 9 10 11 12 13 14 15 16 17 18 19 20 21 22 23 24 25 26 27 28 29 30 31 32 33 34 35 36 37 38 39 40 41 42 43 44 45 46 47 48 49 50
000
ASUS43 KMKX 010259
RWRWI

WISCONSIN REGIONAL WEATHER ROUNDUP
NATIONAL WEATHER SERVICE MILWAUKEE/SULLIVAN WI
900 PM CST SAT FEB 28 2015

NOTE: "FAIR" INDICATES FEW OR NO CLOUDS BELOW 12,000 FEET WITH NO
SIGNIFICANT WEATHER AND/OR OBSTRUCTIONS TO VISIBILITY.

WIZ001-002-006>008-014>016-023>028-010400-
NORTHWEST WISCONSIN

CITY           SKY/WX    TMP DP  RH WIND       PRES   REMARKS
SUPERIOR ARPT  PTCLDY    16   4  58 SW10      30.30F WCI   3
ASHLAND        CLOUDY    15  -1  49 S9        30.32S WCI   3
HAYWARD        CLOUDY    13  -1  54 S13       30.30F WCI  -2
SIREN          CLOUDY    13   1  59 SW12      30.33S WCI  -1
CUMBERLAND     MOCLDY     9   0  66 S7        30.32F WCI  -3
RICE LAKE      FAIR      12   0  56 S7        30.35S WCI   2
CHETEK         MOCLDY    13   0  56 S7        30.35S WCI   3
LADYSMITH      CLOUDY    14   0  54 S9        30.35F WCI   2
EAU CLAIRE     NOT AVBL
MENOMONIE      MOCLDY    13  -1  52 S7        30.38S WCI   3
NEW RICHMOND   CLOUDY    12   2  64 S8        30.35F WCI   0
OSCEOLA        CLOUDY    13   3  64 S9        30.38F WCI   1
$$

WIZ003>005-009-010-017-018-010400-
NORTH CENTRAL WISCONSIN

CITY           SKY/WX    TMP DP  RH WIND       PRES   REMARKS
MANITOWISH WTR CLOUDY    10  -5  51 S8        30.28F WCI  -2
ARBOR VITAE    MOCLDY    11  -3  52 S5        30.29F WCI   3
WOODRUFF       MOCLDY    11  -3  52 S5        30.29F WCI   3
RHINELANDER    CLOUDY    11  -4  51 SW10      30.30F WCI  -3
EAGLE RIVER    CLOUDY    10  -7  45 S5        30.30S WCI   2
LAND O LAKES   CLOUDY    11  -5  48 S5        30.29F WCI   3
PHILLIPS       CLOUDY    10  -4  51 S6        30.30F WCI   1
TOMAHAWK       CLOUDY    10  -4  52 CALM      30.32F
MEDFORD        CLOUDY    12  -3  51 S7        30.32F WCI   2
MERRILL        CLOUDY    13  -3  47 SW6       30.35F WCI   4
$$

WIZ029-030-035-036-043>047-010400-
CENTRAL WISCONSIN

CITY           SKY/WX    TMP DP  RH WIND       PRES   REMARKS
WAUSAU         CLOUDY    14  -1  51 S8        30.35F WCI   3
MOSINEE        NOT AVBL
MARSHFIELD     CLOUDY    15  -2  46 S8        30.36F WCI   4
STEVENS POINT  CLOUDY    13  -1  51 S7        30.40F WCI   3
WAUPACA        CLOUDY    16   2  55 S8        30.44F WCI   5
WAUTOMA        NOT AVBL
WISC RAPIDS    CLOUDY    15  -3  44 S8        30.42S WCI   4
CAMP DOUGLAS   NOT AVBL
$$

WIZ011>013-019>022-031-037>040-048>050-010400-
NORTHEAST WISCONSIN

CITY           SKY/WX    TMP DP  RH WIND       PRES   REMARKS
ANTIGO         MOCLDY     9  -3  58 S8        30.34F WCI  -4
SHAWANO        CLOUDY    16   2  54 S3        30.44F
OCONTO         PTCLDY    13  -1  52 SW3       30.46F
STURGEON BAY   PTCLDY    12   3  67 S8        30.47S WCI   1
GREEN BAY      CLOUDY    14   3  61 S6        30.46F WCI   5
MANITOWOC      NOT AVBL
APPLETON       CLOUDY    14   1  57 SW8       30.45F WCI   3
CLINTONVILLE   CLOUDY    14   3  62 S8        30.43F WCI   3
OSHKOSH        CLOUDY    14   1  56 S12       30.45F WCI   0
$$

WIZ032>034-041-042-053>061-010400-
SOUTHWEST WISCONSIN

CITY           SKY/WX    TMP DP  RH WIND       PRES   REMARKS
LA CROSSE      CLOUDY    17   1  49 S10       30.43F WCI   5
SPARTA         CLOUDY    16   0  51 S5        30.43F WCI   8
VIROQUA        CLOUDY    13   3  63 S7        30.39S WCI   3
BOSCOBEL       MOCLDY    14   1  56 VRB3      30.47F
PRAIRIE DU CHI MOCLDY    11  -4  49 E5        30.47R WCI   3
PLATTEVILLE    CLEAR     10   3  72 SE8       30.44F WCI  -1
$$

WIZ056-057-062-063-064-067-068-010400-
SOUTH CENTRAL WISCONSIN

CITY           SKY/WX    TMP DP  RH WIND       PRES   REMARKS
REEDSBURG      MOCLDY    13   0  55 S5        30.44S WCI   5
BARABOO/DELLS  CLOUDY    12   0  58 S9        30.44S WCI   0
LONE ROCK      NOT AVBL
MINERAL POINT  CLEAR     12   3  67 SE7       30.42F WCI   2
MADISON        MOCLDY    14   0  53 S7        30.45F WCI   4
MIDDLETON      PTCLDY    14   1  54 S7        30.45F WCI   4
WATERTOWN      PTCLDY    13   1  59 CALM      30.46F
MONROE         CLOUDY    14  10  85 S7        30.44F WCI   4
JANESVILLE     CLOUDY    18  10  73 S6        30.48F WCI   9
$$

WIZ051-052-058>065-066-070>072-010400-
SOUTHEAST WISCONSIN

CITY           SKY/WX    TMP DP  RH WIND       PRES   REMARKS
MILWAUKEE      FLURRIES  18   7  62 S6        30.49F WCI  10
WAUKESHA       PTCLDY    16   3  57 S3        30.47F
MILWAUKEE/TIMM CLOUDY    18   7  62 S6        30.49F WCI   9
RACINE         LGT SNOW  19   9  65 S7        30.50F WCI  10
BURLINGTON     MOCLDY    15   1  52 S3        30.49F
KENOSHA        CLOUDY    19   9  65 S12       30.49F WCI   7
FOND DU LAC    MOCLDY    15   0  51 S7        30.46F WCI   5
SHEBOYGAN      CLOUDY    16   2  54 S9        30.47F WCI   4
WEST BEND      MOCLDY    16   0  48 CALM      30.47F
JUNEAU         PTCLDY    13   1  57 S6        30.47F WCI   4
$$

LSZ147-162-010400-
LAKE SUPERIOR

STATION/POSITION TIME  TEMP    WIND        PRES    WAVE
                       AIR SEA DIR/SP/G            HT/PER
                 (UTC) (F)     (DEG/KT/KT) (MB)    (FT/S)
DEVILS ISLAND    0200   18     190/  9/ 11 1027.7S
PORT WING        0240   17     190/ 11/ 16 1026.1F
SAXON HARBOR     0200   17     200/  7/ 17 1026.4F
$$

LMZ867-665-643>646-010400-
LAKE MICHIGAN

STATION/POSITION TIME  TEMP    WIND        PRES    WAVE
                       AIR SEA DIR/SP/G            HT/PER
                 (UTC) (F)     (DEG/KT/KT) (MB)    (FT/S)
NORTHPORT PIER   0201   14     220/  1/  7 1031.5F
SISTER BAY       0213   14     210/  9/ 10   N/A
KEWAUNEE LAKESHO 0200   16     240/  5/  7 1031.2F
SHEBOYGAN LAKESH 0200   19     210/ 12/ 13 1034.3F
PORT WASHINGTON  0200   19     220/  5/ 10 1033.5F
MILWAUKEE LAKESH 0200   19     200/  9/ 11   N/A
KENOSHA   LAKESH 0200   21     210/ 12/ 21 1033.2F
$$

TC  - TEMPERATURE IN CELSIUS
VSB - VISIBILITY IN STATUTE MILES
WCI - WIND CHILL INDEX
HX  - HEAT INDEX




USA.gov is the U.S. government's official web portal to all federal, state and local government web resources and services.